Location: *
(17.3280°S, 114.7300°W)
Time: 07:33:19
(UTC+00:00)

CZ-4B R/B - Pass Details

Date: 05 August 2020
Orbit: 391 x 463 km, 97.6° (Epoch: 20 September)

Event Time Altitude Azimuth Distance (km) Brightness Sun altitude
Rises 12:51:40 0° 178° (S) 2,510 5.1 -17.2°
Reaches altitude 10° 12:53:47 10° 184° (S) 1,628 4.1 -16.7°
Maximum altitude 12:57:08 44° 257° (WSW) 648 1.7 -16.0°
Drops below altitude 10° 13:00:26 10° 330° (NNW) 1,598 4.0 -15.2°
Sets 13:02:29 0° 337° (NNW) 2,457 5.0 -14.7°
